{"data":{"norad_id":53651,"epoch":"2026-09-20T22:12:59.906304Z","epoch_age_seconds":45609,"freshness":"FRESH","line1":"1 53651U 22105D   26263.92569336 -.00000134  00000+0 -14152-5 0  9999","line2":"2 53651  97.5164 153.4826 0001973  89.2033 270.9437 15.36965483223322","mean_motion":15.36965483,"eccentricity":0.0001973,"inclination_deg":97.5164,"raan_deg":153.4826,"arg_perigee_deg":89.2033,"mean_anomaly_deg":270.9437,"bstar":-1.4152e-6,"rev_number":22332,"period_min":93.691108611578,"perigee_km":453.74049712955,"apogee_km":456.43688798783,"semimajor_km":6833.2256925587,"source":"CELESTRAK","updated_at":"2026-09-21T09:00:32.949408Z"}}